www.pogodaiklimat.ru

Погода и климат >> Архив погоды >> Индия >> Тамилнад >> Нагапаттинам


ПОГОДА в Нагапаттинаме

  • Прогноз погоды в Нагапаттинаме
  • Монитор погоды в Нагапаттинаме

АРХИВ ПОГОДЫ в Нагапаттинаме

Время (UTC), дата Ветер
(напр.,м/с)
 
Видим.   Явления Облачность Т
(С)
Тd
(С)
f
(%)
Тe
(С)
Тes
(С)
Комфортность P
(гПа)
Po
(гПа)
Тmin
(С)
Tmax
(С)
R
(мм)
R24
(мм)
S
(см)
12 10.08 ЮЗ 5 10 км 9/4 600 м
[Sc diur, vesp Ac As]
+34.0 +19.9 44 +40 +40 очень
душно
1003.6 1002.6 +38.0
15 10.08 З 3 4000 м 9/3 600 м
[Sc Ac As]
+31.0 +20.8 55 +38 +38 очень
душно
1006.3 1005.3
18 10.08 З 3 4000 м 9/4 600 м
[Sc diur, vesp Ac As]
+30.2 +20.9 58 +38 +38 очень
душно
1007.3 1006.3
21 10.08 СЗ 4 4000 м 9/0 2000 м
[Ac As]
+28.8 +21.3 64 +36 +36 очень
душно
1004.7 1003.6
00 11.08 СЗ 1 4000 м 9/3 600 м
[Sc Ac As]
+28.0 +21.1 66 +35 +35 очень
душно
1005.6 1004.5
03 11.08 З 1 10 км 4/0 2000 м
[Ac trans]
+29.2 +21.1 62 +37 +44 очень
душно
1005.9 1004.9 +27.8 +38.0
06 11.08 З 2 10 км 4/0 2000 м
[Ac trans]
+35.6 +19.3 38 +40 +58 опасность
солнечного
удара
1004.9 1003.9
09 11.08 З 4 10 км 6/3 600 м
[Sc Ci fib]
+38.2 +18.6 32 +42 +49 опасность
перегрева
1002.1 1001.1
12 11.08 З 4 10 км 8/3 600 м
[Sc Ac trans Ci fib]
+34.4 +20.6 45 +41 +42 опасность
перегрева
1002.1 1001.1 +38.7
15 11.08 З 3 4000 м 6/3 600 м
[Sc Ac trans Ci sp]
+30.8 +23.3 64 +41 +41 опасность
перегрева
1005.6 1004.6
18 11.08 ЮЗ 2 4000 м {морось} 5/3 600 м
[Sc Ac trans Ci fib]
+29.4 +23.6 71 +40 +40 очень
душно
1005.5 1004.5 0.0
21 11.08 ЮЗ 2 4000 м 6/3 600 м
[Sc Ci fib]
+28.6 +23.4 73 +39 +39 очень
душно
1003.9 1002.9 0.0
00 12.08 З 2 4000 м 5/1 600 м
[Sc Ac trans Ci fib]
+27.8 +21.9 70 +36 +36 очень
душно
1004.1 1003.1 0.0
03 12.08 З 3 10 км 3/1 600 м
[Sc Ci fib]
+30.8 +22.3 61 +40 +46 очень
душно
1005.8 1004.8 +27.2 +38.7 0.0
06 12.08 З 3 10 км 4/1 600 м
[Sc Ci fib]
+35.8 +22.2 45 +44 +61 опасность
перегрева
1005.4 1004.4
09 12.08 СЗ 2 10 км 4/4 600 м
[Sc diur, vesp]
+37.6 +21.2 39 +45 +54 опасность
перегрева
1002.5 1001.5
12 12.08 штиль 0 10 км 6/4 600 м
[Sc diur, vesp Ac trans Ci sp]
+33.2 +25.6 64 +48 +49 опасность
перегрева
1001.6 1000.6 +38.4
15 12.08 З 3 4000 м гроза без осадков 9/4 600 м
[Cb cap Ac As]
+30.8 +23.9 67 +42 +42 опасность
перегрева
1005.2 1004.2
18 12.08 Ю 2 2000 м слаб. дождь {гроза} 10/4 600 м
[Sc Ac As]
+26.0 +24.3 90 +36 +36 очень
душно
1005.4 1004.3 2
21 12.08 ЮЗ 2 4000 м {дождь} 5/0 2000 м
[Ac trans Ci sp]
+27.4 +26.0 92 +41 +41 опасность
перегрева
1003.5 1002.4 2
00 13.08 ЮЗ 1 4000 м {дождь} 3/0
[Ci fib]
+26.8 +23.6 83 +37 +37 очень
душно
1003.9 1002.8 2
03 13.08 ЮЗ 1 10 км 1/0
[Ci fib]
+29.4 +24.2 74 +41 +50 опасность
перегрева
1006.5 1005.5 +25.8 +38.4 2
06 13.08 ЮЗ 1 10 км 3/0
[Ci fib]
+34.4 +22.5 50 +44 +67 опасность
перегрева
1006.1 1005.1
09 13.08 З 3 10 км 8/3 600 м
[Sc diur, vesp Cs]
+37.2 +21.1 39 +44 +52 опасность
перегрева
1003.2 1002.2
12 13.08 Ю 3 10 км 8/3 600 м
[Sc diur, vesp Ac trans Ci fib]
+34.0 +24.0 56 +46 +46 опасность
перегрева
1003.2 1002.2 +38.3
15 13.08 Ю 3 4000 м 8/5 600 м
[Sc Ac trans Ci fib]
+30.0 +25.2 76 +44 +44 опасность
перегрева
1006.8 1005.8
18 13.08 Ю 2 4000 м 4/1 600 м
[Sc Ac trans Ci fib]
+28.6 +24.6 79 +41 +41 опасность
перегрева
1007.2 1006.1
21 13.08 штиль 0 4000 м 9/1 600 м
[Sc Ac trans Ci fib]
+27.8 +24.3 81 +39 +39 очень
душно
1004.6
00 14.08 З 1 4000 м 3/0 2000 м
[Ac trans Ci fib]
+27.0 +24.1 84 +37 +37 очень
душно
1006.0 1004.9
03 14.08 З 3 10 км 8/0 2000 м
[Ac trans]
+29.8 +21.1 60 +37 +41 очень
душно
1007.3 1006.3 +26.2 +38.3
06 14.08 З 4 10 км 5/1 600 м
[Sc Ac trans Ci fib]
+35.4 +20.6 42 +42 +52 опасность
перегрева
1006.6 1005.6
09 14.08 З 4 10 км 6/4 600 м
[Sc diur, vesp Ci fib]
+38.2 +20.9 37 +45 +50 опасность
перегрева
1003.7 1002.7
12 14.08 ЮЗ 4 10 км 5/3 600 м
[Sc Ac trans Ci fib]
+33.4 +23.7 57 +45 +45 опасность
перегрева
1004.2 1003.2 +38.6
15 14.08 З 4 4000 м 6/3 600 м
[Sc Ac trans Ci fib]
+29.4 +25.1 78 +43 +43 опасность
перегрева
1007.6 1006.6
18 14.08 З 3 4000 м 8/4 600 м
[Sc Ac trans Ci fib]
+29.2 +24.6 76 +41 +41 опасность
перегрева
1008.4 1007.4
21 14.08 ЮЗ 3 4000 м 6/3 600 м
[Sc Ac trans Ci fib]
+28.6 +24.0 76 +40 +40 очень
душно
1007.3 1006.2
00 15.08 З 2 4000 м 6/3 600 м
[Sc Ac trans Ci fib]
+28.4 +21.9 68 +37 +37 очень
душно
1007.5 1006.4
03 15.08 З 2 10 км 8/3 600 м
[Sc Ac trans Ci fib]
+30.2 +20.9 58 +38 +41 очень
душно
1009.1 1008.1 +27.8 +38.6
06 15.08 З 3 10 км 4/1 600 м
[Sc Ac trans Ci fib]
+36.0 +21.3 43 +44 +58 опасность
перегрева
1007.8 1006.8
09 15.08 В 1 10 км 6/5 600 м
[Sc diur, vesp Ac trans]
+35.2 +24.5 54 +48 +56 опасность
перегрева
1004.7 1003.7
12 15.08 ЮВ 1 10 км 8/5 600 м
[Sc diur, vesp Ac trans]
+32.6 +23.4 58 +43 +44 опасность
перегрева
1004.1 1003.1 +38.8
15 15.08 Ю 1 4000 м 8/0 2000 м
[Ac As]
+31.2 +23.1 62 +41 +41 опасность
перегрева
1006.8 1005.8
18 15.08 З 1 4000 м 9/1 600 м
[Sc Ac As]
+30.0 +24.6 73 +43 +43 опасность
перегрева
1007.7 1006.7
21 15.08 ЮЗ 1 4000 м 8/0 2000 м
[Ac trans Cs]
+29.4 +24.5 75 +42 +42 опасность
перегрева
1006.2 1005.2
00 16.08 штиль 0 4000 м в посл. час дождь 9/3 600 м
[Sc Ac As]
+28.8 +24.5 78 +41 +41 опасность
перегрева
1006.5 1005.4 0.0
03 16.08 ЮЗ 1 10 км 9/3 600 м
[Sc Ac As]
+29.6 +22.6 66 +39 +41 очень
душно
1007.8 1006.8 +28.5 +38.8 0.0
06 16.08 З 2 10 км 10/0 2000 м
[Ac trans Cs]
+33.6 +22.6 53 +43 +58 опасность
перегрева
1007.3 1006.3
09 16.08 З 2 10 км 9/3 600 м
[Sc Ac trans Cs]
+36.0 +21.7 44 +44 +50 опасность
перегрева
1004.4 1003.4
12 16.08 ЮЗ 2 10 км 10/4 600 м
[Sc diur, vesp Ac trans Cs]
+30.8 +26.0 76 +46 +47 опасность
перегрева
1003.8 1002.8 +37.0
15 16.08 ЮЗ 3 4000 м гроза без осадков 9/5 600 м
[Cb cap Ac trans Ci fib]
+30.2 +25.1 74 +44 +44 опасность
перегрева
1005.8 1004.8
18 16.08 З 4 4000 м зарница {гроза, дождь} 10/4 600 м
[Cb cap Ac As]
+24.4 +23.8 96 +33 +33 очень
душно
1007.8 1006.7 10
21 16.08 З 2 4000 м гроза, ливневой дождь 10/5 600 м
[Cb cap Ac As]
+24.0 +23.4 96 +32 +32 очень
душно
1007.0 1005.9 20
00 17.08 З 2 2000 м слаб. дождь {гроза} 10/5 300 м
[Sc Ac As]
+24.0 +23.4 96 +32 +32 очень
душно
1006.3 1005.2 30
03 17.08 З 2 4000 м слаб. морось {дождь} 10/5 600 м
[Sc Ac As]
+25.0 +24.1 95 +34 +36 очень
душно
1007.4 1006.3 +23.4 +37.0 32
06 17.08 З 3 10 км {дождь, морось} 6/3 600 м
[Sc Ac trans Ci fib]
+28.8 +24.8 79 +41 +52 опасность
перегрева
1007.4 1006.4 0.2
09 17.08 З 1 10 км 9/1 600 м
[Sc diur, vesp Ac trans Cs]
+30.2 +24.5 72 +43 +52 опасность
перегрева
1005.3 1004.3 0.2

 

Местоположение метеостанции Нагапаттинам (Тамилнад, Индия): широта 10.77 долгота 79.85 высота над уровнем моря 9 м.

В архиве по умолчанию представлена погода в Нагапаттинаме за последнюю неделю. Архивные данные за месяц целиком и за предыдущие месяцы, начиная с января 2011 года, Вы можете получить, выбрав интересующий диапазон дат из раскрывающегося списка и нажав кнопку "Ввод!".


*Определитесь, кто Вы:
робот инопланетянин человек

Внимание! Время в таблицах - всемирное. Для получения местного времени необходимо прибавить поправку, которая равна 5.5 ч.

Смотрите также архив погоды в соседних городах и на ближайших метеорологических станциях:

Погода в Карайкале (Пондичерри, Индия) (17 км)
Погода в Адирампаттинаме (Тамилнад, Индия) (71 км)
Погода в Танджавуре (Тамилнад, Индия) (79 км)
Погода в Парангипеттае (Тамилнад, Индия) (82 км)
Погода в Куддалоре (Тамилнад, Индия) (112 км)
Погода в Тиручирапалли (Тамилнад, Индия) (123 км)
Погода в Джафне (Шри Ланка) (126 км)
Погода в Пондичерри (Пондичерри, Индия) (134 км)
Погода в Кудумиянмалае (Тамилнад, Индия) (135 км)
Погода в Тонди (Тамилнад, Индия) (146 км)

Пояснения к столбцам:

Ветер - указаны скорость ветра в м/с - средняя за 10 мин, порывы в срок и между сроками (в фигурных скобках) и направление, откуда дует ветер: С - северный, СВ - северо-восточный, В - восточный, ЮВ - юго-восточный, Ю - южный, ЮЗ - юго-западный, З - западный, СЗ - северо-западный.
Видимость - горизонтальная дальность видимости в метрах или километрах. При видимости от 1 до 10 км при отсутствии осадков обычно наблюдается дымка, при ухудшении видимости до 1 км и менее - туман. В сухую погоду видимость может ухудшаться дымом, пылью или мглою.
Явления - указаны атмосферные явления, наблюдавшиеся в срок или в последний час перед сроком; фигурными скобками обозначены явления, наблюдавшиеся между сроками (за 1-3 часа до срока); квадратными скобками обозначены град или гололедные отложения с указанием их диаметра в мм.
Облачность - указаны через наклонную черту общая и нижняя облачность в баллах и высота нижней границы облаков в метрах; квадратными скобками обозначены формы облаков: Ci - перистые, Cs - перисто-слоистые, Cc - перисто-кучевые, Ac - высококучевые, As - высокослоистые, Sc - слоисто-кучевые, Ns - слоисто-дождевые, Cu - кучевые, Cb - кучево-дождевые. Подробнее классификацию облаков см. в Атласе облаков (PDF).
T - Температура воздуха - температура, измеренная на высоте 2 м над землей.
Td - Температура точки росы - температура, при понижении до которой содержащийся в воздухе водяной пар достигнет насыщения.
f - Относительная влажность воздуха - влажноcть воздуха, измеренная на высоте 2 м над землей.
Te - Эффективная температура - температура, которую ощущает одетый по сезону человек в тени. Характеристика душности погоды. При расчете учитывается влияние влажности воздуха и скорости ветра на теплоощущения человека.
Tes - Эффективная температура на солнце - температура, которую ощущает человек, с поправкой на солнечный нагрев. Характеристика знойности погоды. Зависит от высоты солнца над горизонтом, облачности и скорости ветра. Ночью, в пасмурную погоду, а также при ветре 12 м/с и более поправка равна нулю.
P - Атмосферное давление - приведенное к уровню моря атмосферное давление.
Po - Атмосферное давление - измеренное на уровне метеостанции атмосферное давление.
Tmin - Минимальная температура - минимум температуры воздуха на высоте 2 м над землей.
Tmax - Максимальная температура - максимум температуры воздуха на высоте 2 м над землей.
R - Количество осадков - Количество выпавших осадков за период времени, мм. При наведении курсора мыши на число - период времени, за который выпало указанное количество осадков.
R24 - Количество осадков - Количество выпавших осадков за 24 часа, мм.
S - Снежный покров - Высота снежного покрова, см. При наведении курсора мыши на число - состояние снежного покрова и степень покрытия местности в баллах.